Location: Wiesbaden
(50.0830°N, 8.2500°E)
Time: 21:56:42
(UTC+01:00)

ISS - Pass Details

Date: 10 November 2019
Orbit: 412 x 421 km, 51.6° (Epoch: 15 November)

Event Time Altitude Azimuth Distance (km) Brightness Sun altitude
Exits shadow 05:00:39 29° 135° (SE) 794 -2.0 -24.2°
Drops below altitude 10° 05:02:31 10° 124° (ESE) 1,501 -0.2 -23.9°
Sets 05:04:37 0° 120° (ESE) 2,362 1.0 -23.6°
